Regional Weather Roundup
Issued by NWS

Home | Current Version | Previous Version | Graphics & Text | Print | Product List | Glossary On
Versions: 1 2 3 4 5 6 7 8 9 10 11 12 13 14 15 16 17 18 19 20 21 22 23 24 25 26 27 28 29 30 31 32 33 34 35 36 37 38 39 40 41 42 43 44 45 46 47 48 49 50
000
ASUS45 KSLC 271910
RWRUT

UTAH REGIONAL WEATHER ROUNDUP
NATIONAL WEATHER SERVICE SALT LAKE CITY UT
100 PM MDT TUE SEP 27 2016

UTZ001>011-023>025-272000-

NORTHERN UTAH

CITY           SKY/WX    TMP DP  RH WIND       PRES   REMARKS
BRIGHAM CITY     N/A     69  47  46 CALM      30.21F
DUGWAY         SUNNY     70  47  43 NW2       30.22F
HILL AFB       SUNNY     69  46  42 VRB2      30.22F
LOGAN          SUNNY     66  48  52 CALM      30.21F
OGDEN          SUNNY     69  51  52 CALM      30.20F
PROVO AIRPORT  SUNNY     66  49  54 W5        30.21F
SALT LAKE CITY MOSUNNY   72  48  42 CALM      30.19F
VERNAL         SUNNY     64  45  49 CALM      30.27F
WENDOVER       SUNNY     66  46  48 E9        30.20F
HEBER CITY     SUNNY     68  41  37 CALM      30.23F
WEST JORDAN    SUNNY     71  48  44 N3        30.21F

$$

UTZ012>022-026-027-272000-

SOUTHERN/CENTRAL UTAH

CITY           SKY/WX    TMP DP  RH WIND       PRES   REMARKS
BLANDING       SUNNY     70  30  22 S6        30.37F
BRYCE CANYON   SUNNY     65  32  29 E9G17     30.37F
CEDAR CITY     SUNNY     73  34  23 CALM      30.23F
DELTA          SUNNY     70  39  32 CALM      30.21F
MILFORD        SUNNY     75  38  26 VRB5      30.20F
MOAB/CYNLANDS    N/A     76  35  22 VRB3      30.19
PRICE          SUNNY     69  38  32 VRB3      30.28F
ST GEORGE      CLEAR     81  37  21 N5        30.11F

$$

REGIONAL REPORTS     COLORADO/ARIZONA

CITY           SKY/WX    TMP DP  RH WIND       PRES   REMARKS
CRAIG, CO      SUNNY     71  30  21 VRB3      30.29F
GRAND JUNCTION SUNNY     72  36  26 VRB3      30.21F
RIFLE          SUNNY     70  35  27 VRB5      30.24F
MONTROSE       SUNNY     71  37  28 N9        30.26F
CORTEZ         SUNNY     72  34  24 SW6       30.28F
PAGE, AZ       SUNNY     76  37  24 N6        30.19F
GRAND CANYON   PTSUNNY   66  39  37 NE12      30.30F
KINGMAN        LGT RAIN  63  54  72 SE13      30.13F
FLAGSTAFF      CLOUDY    58  45  62 E5        30.32F

$$

REGIONAL REPORTS    NEVADA/IDAHO/WYOMING

CITY           SKY/WX    TMP DP  RH WIND       PRES   REMARKS
LAS VEGAS, NV  MOSUNNY   86  32  14 NE9       30.03F
ELY            SUNNY    N/A N/A N/A MISG      30.26F
ELKO           SUNNY     74  38  27 VRB3      30.20F
POCATELLO, ID  SUNNY     72  43  35 NE3       30.20F
BURLEY         SUNNY     70  49  47 E6        30.15F
EVANSTON, WY   SUNNY     67  33  28 CALM      30.33F
ROCK SPRINGS   SUNNY     64  39  39 SW5       30.32F

$$



USA.gov is the U.S. government's official web portal to all federal, state and local government web resources and services.